This is the latest recevied weather packets stored in our database for station/object AB8Y-13. If no packets are shown the sender has not sent any weather packets the latest 10 day(s).
| Time | Temp. | Humidity | Pressure | Rain* | Wind** | Luminosity | Snow |
|---|---|---|---|---|---|---|---|
| 1777241678 | 18.89° C | 41% | 1020.3 hPa | 0 mm | - | 277 W/m² | - |
| 1777241376 | 19.44° C | 42% | 1020.4 hPa | 0 mm | - | 310 W/m² | - |
| 1777241073 | 19.44° C | 44% | 1020.3 hPa | 0 mm | - | 326 W/m² | - |
| 1777240771 | 19.44° C | 44% | 1020.4 hPa | 0 mm | - | 312 W/m² | - |
| 1777240469 | 20° C | 43% | 1020.5 hPa | 0 mm | - | 382 W/m² | - |
| 1777240166 | 19.44° C | 42% | 1020.6 hPa | 0 mm | - | 411 W/m² | - |
| 1777239864 | 19.44° C | 44% | 1020.5 hPa | 0 mm | - | 438 W/m² | - |
| 1777239560 | 18.89° C | 40% | 1020.5 hPa | 0 mm | - | 457 W/m² | - |
| 1777239256 | 19.44° C | 39% | 1020.6 hPa | 0 mm | - | 454 W/m² | - |
| 1777238954 | 19.44° C | 39% | 1020.5 hPa | 0 mm | - | 480 W/m² | - |
| 1777238651 | 19.44° C | 46% | 1020.6 hPa | 0 mm | - | 476 W/m² | - |
| 1777238348 | 19.44° C | 41% | 1020.5 hPa | 0 mm | - | 490 W/m² | - |
| 1777238044 | 19.44° C | 39% | 1020.6 hPa | 0 mm | - | 542 W/m² | - |
| 1777237741 | 19.44° C | 40% | 1020.6 hPa | 0 mm | - | 558 W/m² | - |
| 1777237438 | 19.44° C | 41% | 1020.7 hPa | 0 mm | - | 572 W/m² | - |
| 1777237135 | 19.44° C | 39% | 1020.6 hPa | 0 mm | - | 594 W/m² | - |
| 1777236833 | 19.44° C | 40% | 1020.5 hPa | 0 mm | - | 630 W/m² | - |
| 1777236533 | 19.44° C | 40% | 1020.5 hPa | 0 mm | - | 633 W/m² | - |
| 1777236230 | 18.89° C | 41% | 1020.6 hPa | 0 mm | - | 642 W/m² | - |
| 1777235925 | 18.89° C | 40% | 1020.7 hPa | 0 mm | - | 575 W/m² | - |
| 1777235622 | 18.89° C | 38% | 1020.7 hPa | 0 mm | - | 515 W/m² | - |
| 1777235319 | 18.89° C | 38% | 1020.6 hPa | 0 mm | - | 604 W/m² | - |
| 1777235015 | 18.89° C | 38% | 1020.5 hPa | 0 mm | - | 721 W/m² | - |
| 1777234711 | 18.89° C | 38% | 1020.7 hPa | 0 mm | - | 736 W/m² | - |
| 1777234407 | 18.89° C | 38% | 1020.8 hPa | 0 mm | - | 613 W/m² | - |
* Rain latest hour (hover to see other rain measurements)
** Current wind speed in m/s (hover to see current wind gust speed)